AFR642 LFPO-FMEE

Flight info

Callsign AFR642
Flight time N/A
Altitude 31000
Route OKASI DCT OKEKO DCT MOU DCT MADIV DCT MOKIP DCT TUFTA/N0491F330 DCT KOGAS/N0488F350 DCT MEDAM DCT NITAM DCT MOGBO DCT ELB DCT MEDAL DCT TORLI DCT PNZ DCT MASOT DCT LEVDI DCT NIMAN DCT ARLOS UN4 SALUN N705 MMA L613 KIVIL N710 TAKRI P751 LXR M999 JDW G650 RASKA/N0492F360 UG650 KONET/N0491F370 DCT XADOX DCT DWA UN304 APKAK/N0487F390 UN304 GEPAR/N0495F360 UN304 DENLI/N0497F350 UN304 UVENA
Aircraft B77W/H-SDE1E2E3FGHIJ2J3J4J5M1RWXY/LB1D1

Departure

Time N/A
Airport Paris-Orly Airport (LFPO)

Arrival

Time 2026-04-16 09:53
Airport Roland Garros Airport (FMEE)
Time Latitude Longitude Altitude Speed Heading
2026-04-16 09:20 -17.93550 54.08188 30946 ft 506 kts 156°
2026-04-16 09:21 -17.96760 54.09709 30943 ft 506 kts 156°
2026-04-16 09:21 -18.03184 54.12757 30947 ft 506 kts 156°
2026-04-16 09:22 -18.09610 54.15808 30946 ft 506 kts 156°
2026-04-16 09:22 -18.15995 54.18832 30948 ft 506 kts 157°
2026-04-16 09:23 -18.22416 54.21869 30946 ft 506 kts 157°
2026-04-16 09:23 -18.28844 54.24912 30945 ft 506 kts 157°
2026-04-16 09:24 -18.35279 54.27964 30947 ft 507 kts 157°
2026-04-16 09:24 -18.41710 54.31017 30944 ft 507 kts 157°
2026-04-16 09:25 -18.48137 54.34070 30949 ft 507 kts 157°
2026-04-16 09:25 -18.54533 54.37112 30945 ft 507 kts 157°
2026-04-16 09:26 -18.60950 54.40205 30949 ft 507 kts 154°
2026-04-16 09:26 -18.67086 54.43885 30952 ft 508 kts 150°
2026-04-16 09:27 -18.73172 54.47679 30945 ft 508 kts 150°
2026-04-16 09:27 -18.79272 54.51464 30944 ft 508 kts 151°
2026-04-16 09:28 -18.85384 54.55232 30946 ft 509 kts 151°
2026-04-16 09:28 -18.91508 54.59000 30944 ft 509 kts 151°
2026-04-16 09:29 -18.97631 54.62772 30945 ft 509 kts 151°
2026-04-16 09:29 -19.03751 54.66547 30943 ft 510 kts 151°
2026-04-16 09:30 -19.09874 54.70328 30949 ft 510 kts 151°
2026-04-16 09:30 -19.16002 54.74115 30948 ft 510 kts 151°
2026-04-16 09:31 -19.22125 54.77903 30948 ft 510 kts 151°
2026-04-16 09:31 -19.28255 54.81698 30948 ft 510 kts 151°
2026-04-16 09:32 -19.34349 54.85474 30952 ft 511 kts 151°
2026-04-16 09:32 -19.40485 54.89280 30953 ft 511 kts 151°
2026-04-16 09:33 -19.46626 54.93092 30951 ft 511 kts 151°
2026-04-16 09:33 -19.52768 54.96908 30952 ft 512 kts 151°
2026-04-16 09:34 -19.58917 55.00731 30949 ft 512 kts 151°
2026-04-16 09:34 -19.61991 55.02643 30641 ft 516 kts 151°
2026-04-16 09:34 -19.65118 55.04589 29889 ft 519 kts 151°
2026-04-16 09:34 -19.68215 55.06518 29091 ft 513 kts 151°
2026-04-16 09:35 -19.71233 55.08401 28370 ft 507 kts 151°
2026-04-16 09:35 -19.74263 55.10291 27679 ft 500 kts 151°
2026-04-16 09:35 -19.77249 55.12154 27006 ft 495 kts 151°
2026-04-16 09:35 -19.80197 55.13994 26343 ft 489 kts 151°
2026-04-16 09:36 -19.83127 55.15822 25686 ft 485 kts 151°
2026-04-16 09:36 -19.86022 55.17630 25038 ft 481 kts 151°
2026-04-16 09:36 -19.88901 55.19428 24384 ft 477 kts 151°
2026-04-16 09:36 -19.91754 55.21211 23740 ft 474 kts 151°
2026-04-16 09:37 -19.94593 55.22986 23007 ft 471 kts 151°
2026-04-16 09:37 -19.97372 55.24724 22332 ft 467 kts 151°
2026-04-16 09:37 -20.00161 55.26469 21683 ft 462 kts 151°
2026-04-16 09:37 -20.02922 55.28198 21052 ft 458 kts 151°
2026-04-16 09:38 -20.05657 55.29911 20425 ft 454 kts 151°
2026-04-16 09:38 -20.08366 55.31608 19830 ft 450 kts 151°
2026-04-16 09:38 -20.11062 55.33298 19209 ft 448 kts 151°
2026-04-16 09:38 -20.13735 55.34974 18595 ft 445 kts 151°
2026-04-16 09:39 -20.16401 55.36646 17952 ft 443 kts 151°
2026-04-16 09:39 -20.19055 55.38311 17272 ft 440 kts 151°
2026-04-16 09:39 -20.21677 55.39957 16655 ft 436 kts 150°
2026-04-16 09:39 -20.24282 55.41593 16050 ft 432 kts 150°
2026-04-16 09:40 -20.26861 55.43214 15464 ft 428 kts 150°
2026-04-16 09:40 -20.29416 55.44819 14890 ft 425 kts 150°
2026-04-16 09:40 -20.31954 55.46415 14309 ft 422 kts 150°
2026-04-16 09:40 -20.34437 55.47977 13750 ft 418 kts 150°
2026-04-16 09:41 -20.36930 55.49546 13227 ft 413 kts 150°
2026-04-16 09:41 -20.39397 55.51099 12642 ft 408 kts 150°
2026-04-16 09:41 -20.41815 55.52622 12236 ft 400 kts 150°
2026-04-16 09:41 -20.44197 55.54124 11811 ft 394 kts 150°
2026-04-16 09:42 -20.46542 55.55602 11289 ft 390 kts 150°
2026-04-16 09:42 -20.48833 55.57047 11180 ft 375 kts 150°
2026-04-16 09:42 -20.51034 55.58435 11093 ft 360 kts 150°
2026-04-16 09:42 -20.53152 55.59772 10994 ft 347 kts 150°
2026-04-16 09:43 -20.55191 55.61059 10915 ft 334 kts 150°
2026-04-16 09:43 -20.57155 55.62299 10839 ft 322 kts 151°
2026-04-16 09:43 -20.59050 55.63496 10765 ft 311 kts 151°
2026-04-16 09:43 -20.60877 55.64651 10655 ft 301 kts 151°
2026-04-16 09:44 -20.62654 55.65773 10518 ft 293 kts 151°
2026-04-16 09:44 -20.64394 55.66872 10295 ft 288 kts 151°
2026-04-16 09:44 -20.66114 55.67959 10006 ft 287 kts 151°
2026-04-16 09:44 -20.67828 55.69041 9715 ft 285 kts 151°
2026-04-16 09:45 -20.69532 55.70119 9385 ft 284 kts 151°
2026-04-16 09:45 -20.71212 55.71181 9069 ft 283 kts 151°
2026-04-16 09:45 -20.72904 55.72251 8761 ft 282 kts 151°
2026-04-16 09:45 -20.74589 55.73318 8437 ft 281 kts 151°
2026-04-16 09:46 -20.76267 55.74380 8129 ft 280 kts 150°
2026-04-16 09:46 -20.77938 55.75439 7831 ft 279 kts 150°
2026-04-16 09:46 -20.79609 55.76497 7518 ft 278 kts 150°
2026-04-16 09:46 -20.81269 55.77548 7233 ft 276 kts 151°
2026-04-16 09:47 -20.83039 55.78238 6785 ft 273 kts 177°
2026-04-16 09:47 -20.84906 55.77991 6436 ft 269 kts 197°
2026-04-16 09:47 -20.86706 55.77429 6095 ft 269 kts 197°
2026-04-16 09:47 -20.88502 55.76875 5818 ft 267 kts 197°
2026-04-16 09:48 -20.90282 55.76331 5624 ft 262 kts 197°
2026-04-16 09:48 -20.91870 55.75567 5475 ft 241 kts 222°
2026-04-16 09:48 -20.92807 55.74233 5302 ft 219 kts 250°
2026-04-16 09:48 -20.93171 55.72718 5067 ft 204 kts 265°
2026-04-16 09:49 -20.93100 55.71255 4800 ft 192 kts 285°
2026-04-16 09:49 -20.92741 55.69937 4568 ft 178 kts 286°
2026-04-16 09:49 -20.92399 55.68671 4064 ft 177 kts 286°
2026-04-16 09:49 -20.92053 55.67390 3474 ft 182 kts 287°
2026-04-16 09:50 -20.91758 55.66114 3173 ft 175 kts 283°
2026-04-16 09:50 -20.91497 55.64812 2983 ft 183 kts 283°
2026-04-16 09:50 -20.91227 55.63460 2629 ft 186 kts 283°
2026-04-16 09:50 -20.90953 55.62088 2082 ft 192 kts 283°
2026-04-16 09:51 -20.90668 55.60675 1607 ft 194 kts 284°
2026-04-16 09:51 -20.90390 55.59286 1032 ft 184 kts 284°
2026-04-16 09:51 -20.90151 55.58064 738 ft 154 kts 285°
2026-04-16 09:51 -20.89932 55.56998 510 ft 143 kts 284°
2026-04-16 09:52 -20.89722 55.55936 422 ft 150 kts 285°
2026-04-16 09:52 -20.89476 55.54841 224 ft 151 kts 285°
2026-04-16 09:52 -20.89270 55.53758 120 ft 147 kts 285°
2026-04-16 09:52 -20.89052 55.52725 50 ft 136 kts 284°
2026-04-16 09:53 -20.88933 55.52115 56 ft 107 kts 281°
2026-04-16 09:53 -20.88814 55.51530 59 ft 51 kts 282°
2026-04-16 09:53 -20.88752 55.51219 63 ft 17 kts 281°
2026-04-16 09:53 -20.88798 55.51140 57 ft 6 kts 181°
2026-04-16 09:54 -20.88826 55.51145 61 ft 6 kts 166°
2026-04-16 09:54 -20.88865 55.51158 72 ft 4 kts 162°
2026-04-16 09:54 -20.88891 55.51167 85 ft 4 kts 160°
2026-04-16 09:54 -20.88919 55.51178 83 ft 5 kts 161°
2026-04-16 09:55 -20.88951 55.51191 84 ft 5 kts 155°
2026-04-16 09:55 -20.88979 55.51222 84 ft 6 kts 123°
2026-04-16 09:55 -20.89008 55.51257 82 ft 7 kts 157°
2026-04-16 09:55 -20.89040 55.51252 82 ft 2 kts 206°
2026-04-16 09:56 -20.89058 55.51243 84 ft 3 kts 206°
2026-04-16 09:56 -20.89065 55.51239 82 ft 0 kts 206°